Export;EXP-2023-01 (20230707 06:23);;;StationsCode;NL01484;NL01485;NL01486;NL01494;NL01495;NL01496;NL10133;NL10318;NL10416;NL10444;NL10644;NL10722;NL10934;NL49016;NL49551;NL49553;NL49704
Periode;20120101 00:00 - 20130101 00:00;;;BeheerderMeetStation;DCMR;DCMR;DCMR;DCMR;DCMR;DCMR;RIVM;RIVM;RIVM;RIVM;RIVM;RIVM;RIVM;GGD A'dam;GGD A'dam;GGD A'dam;GGD A'dam
Bron;https://data.rivm.nl/data/luchtmeetnet;;;StationsNaam;Botlek-Oude Maasweg;Hoogvliet-Leemkuil;Pernis-Soetemanweg;Schiedam-Alphons Arienstraat;Maassluis-Kwartellaan;Hoek v. Holland-Berghaven;Wijnandsrade-Opfergeltstraat;Philippine-Stelleweg;Vlaardingen-Lyceumlaan;De Zilk-Vogelaarsdreef;Cabauw-Wielsekade;Eibergen-Lintveldseweg;Kollumerwaard-Hooge Zuidwal;Amsterdam-Westerpark;IJmuiden-Kanaaldijk;Wijk aan Zee-Burgemeester Rothestraat;Amsterdam-Hoogtij
Beschrijving data;https://data.rivm.nl/data/luchtmeetnet/readme.pdf;;;Latitude,Longitude;(51.888889,4.3125);(51.867411,4.355242);(51.887869,4.388808);(51.921389,4.401389);(51.932039,4.228025);(51.977803,4.121944);(50.902281,5.881748);(51.294498,3.749484);(51.916589,4.356639);(52.296556,4.510817);(51.974489,4.923301);(52.091801,6.605367);(53.330425,6.276815);(52.393972,4.870157);(52.463039,4.601842);(52.493992,4.601986);(52.428017,4.773478)
Accreditatienummer;https://www.rva.nl/alle-geaccrediteerden/;;;StationsGebied;stad;stad;voorstad;stad;stad;voorstad;regionaal;regionaal;stad;regionaal;regionaal;regionaal;regionaal;stad;stad;stad;regionaal
;;;;StationsType;industrie;achtergrond;industrie;achtergrond;achtergrond;industrie;achtergrond;achtergrond;achtergrond;achtergrond;achtergrond;achtergrond;achtergrond;achtergrond;industrie;industrie;industrie
;;;;Meetprincipe;Ultraviolet fluorescentie (UV-F);Ultraviolet fluorescentie (UV-F);Ultraviolet fluorescentie (UV-F);Ultraviolet fluorescentie (UV-F);Ultraviolet fluorescentie (UV-F);Ultraviolet fluorescentie (UV-F);Ultraviolet fluorescentie (UV-F);Ultraviolet fluorescentie (UV-F);Ultraviolet fluorescentie (UV-F);Ultraviolet fluorescentie (UV-F);Ultraviolet fluorescentie (UV-F);Ultraviolet fluorescentie (UV-F);Ultraviolet fluorescentie (UV-F);Ultraviolet fluorescentie (UV-F);Ultraviolet fluorescentie (UV-F);Ultraviolet fluorescentie (UV-F);Ultraviolet fluorescentie (UV-F)
;;;;Meetopstelling;Teledyne API 100E UV Fluorescent SO2 Analyser;Teledyne API 100E UV Fluorescent SO2 Analyser;Teledyne API 100E UV Fluorescent SO2 Analyser;Teledyne API 100E UV Fluorescent SO2 Analyser;Teledyne API 100E UV Fluorescent SO2 Analyser;Teledyne API 100E UV Fluorescent SO2 Analyser;Thermo model 43w SO2 analyser;Thermo model 43w SO2 analyser;Thermo model 43w SO2 analyser;Thermo model 43w SO2 analyser;Thermo model 43w SO2 analyser;Thermo model 43w SO2 analyser;Thermo model 43w SO2 analyser;Thermo model 43i SO2 analyser;Thermo model 43i SO2 analyser;Thermo model 43i SO2 analyser;Thermo model 43i SO2 analyser
;;;;Accreditatienummer;L520;L520;L520;L520;L520;L520;L224;L224;L224;L224;L224;L224;L224;L426;L426;L426;L426
Component;Bep.periode;Eenheid; Begindatumtijd;Einddatumtijd;NL01484;NL01485;NL01486;NL01494;NL01495;NL01496;NL10133;NL10318;NL10416;NL10444;NL10644;NL10722;NL10934;NL49016;NL49551;NL49553;NL49704
SO2;uur;�g/m�;20120101 00:00;20120101 01:00;7.3;4.7;16.7;18.2;4.1;2.8;1.41;0.76;8.88;2.48;;-0.26;0.75;14;13;94;2
SO2;uur;�g/m�;20120101 01:00;20120101 02:00;5.5;1.9;15.8;9.9;3.3;3.1;0.58;0.45;3.2;2.04;;-0.42;0.56;6;1;6;2
SO2;uur;�g/m�;20120101 02:00;20120101 03:00;5.1;2.5;8.2;5.4;3.8;3.8;0.72;0.7;1.84;1.44;;-0.61;0.41;2;0;6;1
SO2;uur;�g/m�;20120101 03:00;20120101 04:00;5.6;1.9;5.5;5.2;3.3;2.6;0.54;0.67;1.36;1.22;;-0.39;0.71;0;0;5;1
SO2;uur;�g/m�;20120101 04:00;20120101 05:00;5;1.5;5;6;2.8;2.3;0.38;0.86;0.76;0.92;;-0.33;0.37;0;;;1
SO2;uur;�g/m�;20120101 05:00;20120101 06:00;5.2;1.8;5.2;5.1;2.9;2.1;0.32;0.79;0.54;1.12;;-0.72;0.44;0;6;0;1
SO2;uur;�g/m�;20120101 06:00;20120101 07:00;5.1;1.8;6.2;5.6;2.7;2.9;0.72;0.72;1.02;1.16;;-0.7;0.67;0;5;0;1
SO2;uur;�g/m�;20120101 07:00;20120101 08:00;4.1;1;6.8;4.3;2.8;2.7;0.11;0.91;1.65;0.81;;-0.73;0.59;0;5;0;1
SO2;uur;�g/m�;20120101 08:00;20120101 09:00;3.7;1.8;10.4;3.9;2.8;3;0.31;0.69;2.33;1.01;;-0.69;0.15;0;6;0;1
SO2;uur;�g/m�;20120101 09:00;20120101 10:00;4;1.6;9.4;3.7;3;2.9;0.29;0.9;1.68;1.08;;-0.47;0.16;0;5;0;
SO2;uur;�g/m�;20120101 10:00;20120101 11:00;3.4;1;6.4;3.6;2.4;4.4;0.26;0.97;1.23;0.84;;-0.63;0.42;0;5;0;1
SO2;uur;�g/m�;20120101 11:00;20120101 12:00;3.7;1.7;5.1;4.5;2.5;3.6;-0.09;0.81;0.93;1.56;;-0.49;0.34;0;5;2;1
SO2;uur;�g/m�;20120101 12:00;20120101 13:00;4.9;1.5;4.8;7.7;2.9;3.3;0.25;0.85;0.99;1.36;;-0.65;0.36;1;5;4;1
SO2;uur;�g/m�;20120101 13:00;20120101 14:00;13.7;1.4;4.1;10.1;3.4;5.4;0.34;0.94;1.58;1.09;;-0.77;0.46;1;5;4;1
SO2;uur;�g/m�;20120101 14:00;20120101 15:00;40.5;1.8;4.7;6.9;3.6;6.5;0.32;0.87;2.33;1.3;;-0.76;0.73;1;6;3;1
SO2;uur;�g/m�;20120101 15:00;20120101 16:00;18.4;1.8;4.4;6;3.4;7.6;0.48;0.96;4.09;1.77;;-0.89;0.41;1;6;6;1
SO2;uur;�g/m�;20120101 16:00;20120101 17:00;8.5;1.6;4.4;4.9;3.2;7.5;0.01;0.81;3.96;1.38;;-0.6;0.18;0;6;13;1
SO2;uur;�g/m�;20120101 17:00;20120101 18:00;6.8;1.7;4.1;3.5;2.6;21.7;-0.18;1.14;3.95;1.1;;-0.7;0.01;0;5;15;1
SO2;uur;�g/m�;20120101 18:00;20120101 19:00;5.8;1.7;4;2.6;2.6;22.6;-0.59;0.62;4.69;0.68;;-0.88;0.05;0;5;7;1
SO2;uur;�g/m�;20120101 19:00;20120101 20:00;5.8;1.9;4.4;3.3;2.6;22.9;-0.31;0.88;4.02;0.89;;-0.84;-0.2;0;5;9;0
SO2;uur;�g/m�;20120101 20:00;20120101 21:00;8.7;1.8;4.3;3.6;3;9.6;-0.11;0.92;4.18;1.04;;-0.97;0.24;0;5;5;0
SO2;uur;�g/m�;20120101 21:00;20120101 22:00;10.6;1.3;4.8;4;2.9;6.2;-0.18;0.86;1.95;0.65;;-0.93;-0.16;0;5;1;1
SO2;uur;�g/m�;20120101 22:00;20120101 23:00;7.7;1.7;9;3.3;3.2;17;-0.1;0.63;1.01;0.95;;-0.86;0.08;0;6;0;1
SO2;uur;�g/m�;20120101 23:00;20120102 00:00;6.3;1.5;9.7;3.5;2.6;11.7;-0.21;0.76;0.21;0.94;;-0.83;0.25;0;6;0;1
SO2;uur;�g/m�;20120102 00:00;20120102 01:00;5.5;1.1;10.2;3.1;2.2;5.4;-0.07;-0.4;1.79;0.57;;0.36;0.33;0;6;0;0
SO2;uur;�g/m�;20120102 01:00;20120102 02:00;8.2;1.5;6.4;3.5;2.5;4.4;0.1;-0.5;1.91;0.74;;0.59;0.48;0;5;0;0
SO2;uur;�g/m�;20120102 02:00;20120102 03:00;5.4;1.9;6.1;3.4;3.1;5.4;-0.12;-0.4;2.12;0.94;;0.6;0.33;0;5;0;0
SO2;uur;�g/m�;20120102 03:00;20120102 04:00;5.6;1.7;8.2;3.7;3.6;13.6;-0.04;-0.75;2.54;0.86;;0.04;0.16;0;6;0;0
SO2;uur;�g/m�;20120102 04:00;20120102 05:00;7.9;1.2;13.1;3.6;3.8;13.9;0.11;-0.79;1.89;0.54;;0.51;0.37;0;7;0;1
SO2;uur;�g/m�;20120102 05:00;20120102 06:00;11.4;1;9.2;3.3;5;13.6;0.21;-0.63;1.78;0.38;;0.31;0.03;0;7;0;1
SO2;uur;�g/m�;20120102 06:00;20120102 07:00;14;1.2;9.1;3.5;4.7;6;0.13;-0.78;2.01;0.84;;0.46;0.36;0;6;0;1
SO2;uur;�g/m�;20120102 07:00;20120102 08:00;13.6;1.7;7.9;3.8;6.9;6.4;-0.27;-0.81;2.1;0.54;;0.36;0.07;0;8;0;1
SO2;uur;�g/m�;20120102 08:00;20120102 09:00;13.5;1.7;8.2;3.2;7.2;12.3;-0.33;-0.61;1.84;0.76;;0.54;0.26;0;9;0;1
SO2;uur;�g/m�;20120102 09:00;20120102 10:00;7.6;1.5;8.5;2.4;4.9;19.6;-0.25;-0.76;2.05;0.6;;0.51;0.07;;11;0;1
SO2;uur;�g/m�;20120102 10:00;20120102 11:00;6.8;1.5;5.9;5.9;6;10.2;-0.14;-0.89;3;0.82;;0.26;0.31;0;13;0;1
SO2;uur;�g/m�;20120102 11:00;20120102 12:00;9.2;1.6;5.4;6.2;4;9.1;-0.05;-0.35;2.29;0.8;;0.51;0.15;1;11;0;1
SO2;uur;�g/m�;20120102 12:00;20120102 13:00;11;1.9;5.3;8.9;3.8;3.8;0.2;-0.29;2.89;1.1;;0.55;0.51;1;9;0;1
SO2;uur;�g/m�;20120102 13:00;20120102 14:00;6.6;2.3;5.9;7.1;3.6;12.6;0.38;-0.54;2.8;0.73;;0.58;0.21;1;9;0;1
SO2;uur;�g/m�;20120102 14:00;20120102 15:00;12;1.9;14.1;4;3.8;24.8;0.3;-0.42;1.78;1.04;;0.61;0.27;1;10;0;1
SO2;uur;�g/m�;20120102 15:00;20120102 16:00;7.2;1.2;10.3;3.1;4.5;11.8;0.3;-0.22;2.17;0.34;;0.51;0.08;1;10;0;1
SO2;uur;�g/m�;20120102 16:00;20120102 17:00;8.6;1;8.5;2.8;5;6.8;0.22;-0.48;2.02;0.74;;0.34;0.09;1;9;0;1
SO2;uur;�g/m�;20120102 17:00;20120102 18:00;4.8;0.8;7.3;2.8;2.1;12.8;0.1;-0.5;2.13;1.11;;0.45;-0.18;0;9;0;1
SO2;uur;�g/m�;20120102 18:00;20120102 19:00;5.2;0.6;4.5;3.3;2;6.3;0.65;-0.88;3.67;0.73;;0.34;-0.39;0;9;0;1
SO2;uur;�g/m�;20120102 19:00;20120102 20:00;13.7;0.4;4;10.2;3.3;7;0.44;-0.66;3.52;0.97;;0.41;-0.09;1;7;0;1
SO2;uur;�g/m�;20120102 20:00;20120102 21:00;21.1;0.8;4.3;12.2;4;8.5;0.94;-0.25;7.6;0.73;;0.37;0.1;1;6;0;1
SO2;uur;�g/m�;20120102 21:00;20120102 22:00;25.3;1.3;4.7;7.4;4.3;12.6;0.47;-0.27;8.46;0.73;;0.31;-0.05;1;6;0;1
SO2;uur;�g/m�;20120102 22:00;20120102 23:00;21.3;1.3;4.6;9.4;3.3;10.4;0.45;-0.56;11.8;0.67;;0.22;0.08;2;6;0;1
SO2;uur;�g/m�;20120102 23:00;20120103 00:00;21.6;1.2;4.6;5.5;2.4;7.5;0.33;-0.42;8.38;0.79;;0.49;-0.23;2;5;0;1
SO2;uur;�g/m�;20120103 00:00;20120103 01:00;18.1;1;4.3;4.9;2.6;4.5;1;-0.54;9.52;2.68;;0.78;1.65;2;6;0;1
SO2;uur;�g/m�;20120103 01:00;20120103 02:00;29.6;0.7;4.3;6;3;4;0.53;-0.52;5.64;2.84;;0.42;0.76;3;7;9;1
SO2;uur;�g/m�;20120103 02:00;20120103 03:00;19.2;0.7;4;7.5;3.2;4.9;0.56;-0.56;6.66;2.33;;0.31;0.99;2;6;10;1
SO2;uur;�g/m�;20120103 03:00;20120103 04:00;12.8;0.7;4.5;6.1;3.9;7.4;0.18;-0.12;5.5;1.97;;0.22;1.25;2;7;19;1
SO2;uur;�g/m�;20120103 04:00;20120103 05:00;25.8;1.1;4.9;3.9;2.7;6.5;0.08;-0.49;4.8;1.77;;0.38;0.81;2;6;20;1
SO2;uur;�g/m�;20120103 05:00;20120103 06:00;13.2;1;4.3;3.8;2.7;15;0.21;-0.35;7.16;1.4;;0.45;0.6;1;;;1
SO2;uur;�g/m�;20120103 06:00;20120103 07:00;10.3;1;4.9;3.1;2.8;27.1;0.06;-0.67;5.56;1.62;;0.55;0.66;1;1;17;1
SO2;uur;�g/m�;20120103 07:00;20120103 08:00;9.2;1;5;3;2.9;10.2;0.13;-0.91;1.94;1.44;;0.8;0.69;1;1;6;1
SO2;uur;�g/m�;20120103 08:00;20120103 09:00;10;1.1;5.2;2.9;2.6;29.3;0.35;-0.6;2.26;1.4;;0.36;0.54;1;0;2;1
SO2;uur;�g/m�;20120103 09:00;20120103 10:00;15;1.1;5.7;2.9;2.9;13.7;0.11;-1.02;2.93;1.22;;0.32;0.44;0;0;9;1
SO2;uur;�g/m�;20120103 10:00;20120103 11:00;19.6;1.7;5.9;5.9;3.1;4.9;0.2;-0.68;2.44;2.13;;0.36;0.33;0;4;12;
SO2;uur;�g/m�;20120103 11:00;20120103 12:00;24;1.6;6.2;8;2.9;5.1;0.11;-0.9;3.64;2.19;;0.33;0.12;1;4;12;1
SO2;uur;�g/m�;20120103 12:00;20120103 13:00;16.9;1.7;6;5.8;2.2;8.1;-0.18;-0.77;1.57;1.33;;0.21;0.07;1;1;6;1
SO2;uur;�g/m�;20120103 13:00;20120103 14:00;16.4;1.8;6.3;3.4;2;4.8;-0.2;-0.89;1.06;1.2;;0.45;0.04;0;0;4;1
SO2;uur;�g/m�;20120103 14:00;20120103 15:00;14.8;2;6.4;4.7;2.1;4.8;-0.2;-0.82;0.42;1.14;;0.24;0.38;0;0;3;1
SO2;uur;�g/m�;20120103 15:00;20120103 16:00;15.4;1.8;5.8;4.4;2;7.9;0.04;-0.8;0.28;1.11;;0.27;0.37;0;0;0;1
SO2;uur;�g/m�;20120103 16:00;20120103 17:00;10.8;1.3;8.8;3.5;1.5;7.2;-0.17;-0.72;-0.33;0.68;;0.32;0.67;0;0;0;1
SO2;uur;�g/m�;20120103 17:00;20120103 18:00;9.7;1.6;8.3;4;2.3;5.6;-0.42;-0.41;0.21;0.96;;0.58;1.07;0;0;0;1
SO2;uur;�g/m�;20120103 18:00;20120103 19:00;10.3;1.8;12.1;5.3;3.2;17.2;-0.13;-0.33;1.7;1.32;;0.26;1.34;1;1;0;1
SO2;uur;�g/m�;20120103 19:00;20120103 20:00;11;1.8;15.9;3.9;3.4;12.5;0.03;-0.43;0.42;1.09;;0.58;1.69;1;1;0;1
SO2;uur;�g/m�;20120103 20:00;20120103 21:00;11.8;1.2;9.6;3;4.4;6.1;-0.04;-0.59;0.05;0.72;;0.39;1.14;0;0;0;1
SO2;uur;�g/m�;20120103 21:00;20120103 22:00;16.8;0.9;9.9;2.9;5;10.2;0.37;-0.69;0;0.78;;0.65;1.11;0;0;0;1
SO2;uur;�g/m�;20120103 22:00;20120103 23:00;12.6;0.7;15;2.4;3.2;14.1;-0.1;-0.5;-0.17;0.57;;0.66;0.96;0;0;0;1
SO2;uur;�g/m�;20120103 23:00;20120104 00:00;9.2;1.1;19.1;3.4;2.8;10.3;0.57;-0.49;0.01;0.61;;0.85;1.52;0;0;0;1
SO2;uur;�g/m�;20120104 00:00;20120104 01:00;8.4;1.2;8.1;4.2;2.8;21.2;0.86;0.76;5.5;1.41;;-0.14;-1.49;0;0;0;1
SO2;uur;�g/m�;20120104 01:00;20120104 02:00;7.8;0.9;7.8;3.8;3.9;13.5;0.38;0.91;5.43;1.59;;-0.55;-1.61;1;1;0;1
SO2;uur;�g/m�;20120104 02:00;20120104 03:00;8.3;0.6;16.4;3.8;3.6;10.7;0.35;0.9;4.33;1.45;;0.04;-1.63;1;0;0;1
SO2;uur;�g/m�;20120104 03:00;20120104 04:00;12.5;1;12.4;2.9;7.9;4.5;0.61;0.73;2.48;0.95;;-0.43;-1.79;1;0;0;1
SO2;uur;�g/m�;20120104 04:00;20120104 05:00;10.7;10.9;6.8;5.5;27.8;2.9;0.93;0.29;10.41;0.7;;-0.34;-1.41;1;0;0;1
SO2;uur;�g/m�;20120104 05:00;20120104 06:00;10.8;13.7;8.7;3;7.2;6.1;0.85;0.76;4.44;1.01;;-0.63;-1.04;1;0;0;1
SO2;uur;�g/m�;20120104 06:00;20120104 07:00;17.2;11.9;8.2;2.5;4;1.9;0.38;0.53;2.69;1.29;;-1.13;-1.61;1;0;0;1
SO2;uur;�g/m�;20120104 07:00;20120104 08:00;19.3;15.6;7.3;2;3.4;2.7;0.17;0.5;2.84;1.3;;-0.66;-1.75;2;0;0;2
SO2;uur;�g/m�;20120104 08:00;20120104 09:00;9.6;19.8;14.9;2.9;4.3;3.5;-0.02;0.31;2.89;0.94;;-0.71;-1.8;2;0;0;2
SO2;uur;�g/m�;20120104 09:00;20120104 10:00;9.1;22.6;11.9;2.8;17.8;4.5;0.2;0.86;5.84;1.05;;-0.85;-1.67;1;0;0;2
SO2;uur;�g/m�;20120104 10:00;20120104 11:00;10.1;;6.1;6.5;35.4;11.1;0.46;0.65;12.72;1.21;;-1.05;-1.85;;0;0;2
SO2;uur;�g/m�;20120104 11:00;20120104 12:00;11.9;;;12.8;31.4;4.3;1.25;0.9;8.44;1.12;;-0.71;-1.72;2;0;0;2
SO2;uur;�g/m�;20120104 12:00;20120104 13:00;9.7;0;6.5;5.1;11;6.4;1.82;1.45;3.74;1.46;;-0.75;-1.43;1;5;0;2
SO2;uur;�g/m�;20120104 13:00;20120104 14:00;9.8;0;9.4;2.6;5;4.9;1.79;1.46;2.95;0.83;;-0.77;-1.47;1;5;0;2
SO2;uur;�g/m�;20120104 14:00;20120104 15:00;8.3;0;;2.3;5.1;15.3;1.2;1.28;2.53;1.3;;-0.92;-1.81;1;1;0;2
SO2;uur;�g/m�;20120104 15:00;20120104 16:00;8.2;0;28.4;3.3;5.1;21.1;0.39;0.77;3.18;1.14;;-0.69;-1.32;1;0;0;2
SO2;uur;�g/m�;20120104 16:00;20120104 17:00;6.5;0.3;19.6;3.2;4.7;33.4;0.56;1.14;2.75;1.52;;-0.87;-1.17;1;0;0;2
SO2;uur;�g/m�;20120104 17:00;20120104 18:00;7.8;0.8;19.1;5.2;4.4;23.3;0.38;1.63;3.98;1.94;;0.08;-0.87;1;0;0;2
SO2;uur;�g/m�;20120104 18:00;20120104 19:00;5.7;0.7;14.3;4.4;2.5;8.5;0.81;0.88;3.75;1.46;;-0.19;-1.65;1;0;0;1
SO2;uur;�g/m�;20120104 19:00;20120104 20:00;5.6;0.9;6.8;7.1;2.3;4.6;0.42;0.59;2.86;1.56;;-0.26;-1.44;1;0;0;2
SO2;uur;�g/m�;20120104 20:00;20120104 21:00;5.9;0.8;5.7;6.5;2.6;6;0.26;0.31;1.94;1.31;;-0.33;-1.46;1;0;0;1
SO2;uur;�g/m�;20120104 21:00;20120104 22:00;5.8;1;6.2;4.5;2.5;7.1;0.15;0.56;1.89;1.08;;-0.85;-1.45;1;0;0;1
SO2;uur;�g/m�;20120104 22:00;20120104 23:00;6.9;1.6;6.4;3.4;2.4;5.3;0.02;0.18;1.77;0.84;;-1.04;-1.64;1;0;0;1
SO2;uur;�g/m�;20120104 23:00;20120105 00:00;7.7;2.1;8;2.9;2.9;7.1;-0.19;0.34;1.84;1.25;;-0.81;-0.88;0;0;0;1
SO2;uur;�g/m�;20120105 00:00;20120105 01:00;7.9;2.6;8.7;4;2.4;3.6;-0.06;0.3;0.79;0.22;;0.22;-1.61;1;0;0;1
SO2;uur;�g/m�;20120105 01:00;20120105 02:00;8.2;2.4;11;3.8;2.7;5.4;-0.3;0.45;0.63;0.32;;0.12;-1.74;1;0;0;2
SO2;uur;�g/m�;20120105 02:00;20120105 03:00;9.5;2.6;20.7;4.2;3.1;16.2;-0.04;0.36;1.36;0;;0.39;-1.82;1;0;0;2
SO2;uur;�g/m�;20120105 03:00;20120105 04:00;9;2.7;25.8;4.5;3;17.3;-0.18;0.66;0.58;0.42;;0.29;-1.46;1;0;0;2
SO2;uur;�g/m�;20120105 04:00;20120105 05:00;9.8;2.7;33.8;4.4;2.8;19.2;-0.23;0.62;0.38;-0.03;;0.43;-1.2;1;0;0;2
SO2;uur;�g/m�;20120105 05:00;20120105 06:00;10.4;3;34.6;3.8;4.1;13.3;-0.07;0.71;0.24;-0.25;;-0.41;-1.24;1;0;0;1
SO2;uur;�g/m�;20120105 06:00;20120105 07:00;11.6;4.5;21.8;3.9;5.9;9.1;0.15;0.83;0.32;-0.45;;-0.77;-1.51;1;;;1
SO2;uur;�g/m�;20120105 07:00;20120105 08:00;13.4;12.5;11;4.8;16;4.8;-0.01;0.47;0.23;-0.59;;-0.21;-1.58;1;0;0;2
SO2;uur;�g/m�;20120105 08:00;20120105 09:00;12.5;23.8;14.3;3.9;18.4;7.9;-0.32;0.14;1.99;-0.23;;-0.48;-1.72;1;0;0;2
SO2;uur;�g/m�;20120105 09:00;20120105 10:00;13;20.5;11.9;3.2;19.5;5.8;-0.38;0.31;3.78;-0.28;;-0.42;-1.53;1;0;0;2
SO2;uur;�g/m�;20120105 10:00;20120105 11:00;14.1;17.4;14.4;3.3;8.3;4.4;-0.35;0.31;1.65;-0.23;;-0.43;-2.17;1;1;0;2
SO2;uur;�g/m�;20120105 11:00;20120105 12:00;19.5;15.5;11;3.6;4.9;3.3;-0.17;0.55;0.45;-0.26;;0.07;-1.7;2;0;0;
SO2;uur;�g/m�;20120105 12:00;20120105 13:00;23.2;17.1;9.6;3.4;3.8;3.2;-0.14;0.18;0.73;-0.37;;-0.01;-1.87;5;0;0;4
SO2;uur;�g/m�;20120105 13:00;20120105 14:00;23.5;14.4;9;3.5;3.2;2.7;-0.15;0.37;0.14;-0.32;;0.08;-2.1;3;0;0;4
SO2;uur;�g/m�;20120105 14:00;20120105 15:00;14.7;7.9;7.3;3.3;3.1;;0.11;0.43;0.29;-0.3;;0.2;-1.99;4;0;0;5
SO2;uur;�g/m�;20120105 15:00;20120105 16:00;13.5;5.8;6.6;2.9;3;;-0.16;0.35;0.25;0.04;;0.15;-2.09;3;2;0;3
SO2;uur;�g/m�;20120105 16:00;20120105 17:00;12;5.6;6.7;3.1;2.5;;0.07;0.38;0.6;-0.26;;0.61;-2;2;0;0;1
SO2;uur;�g/m�;20120105 17:00;20120105 18:00;10.6;10.4;7.7;2.9;1.8;1.9;-0.12;0.3;0.32;-0.48;;0.53;-2.32;1;4;0;1
SO2;uur;�g/m�;20120105 18:00;20120105 19:00;9.8;14;5.7;2.3;1.6;1.7;0.08;0.37;0.35;-0.89;;0.06;-2.24;1;20;0;1
SO2;uur;�g/m�;20120105 19:00;20120105 20:00;9.6;14.9;5.4;1.9;2.2;1.5;0.34;0.38;0.16;-0.97;;0.37;-2.31;1;12;0;1
SO2;uur;�g/m�;20120105 20:00;20120105 21:00;9.6;9.9;4.9;1.6;0;1.5;0.32;0.36;-0.05;-0.86;;0.25;-2.35;2;3;0;1
SO2;uur;�g/m�;20120105 21:00;20120105 22:00;9.6;9.7;5.1;1.4;0.4;1.4;-0.04;0.42;0.1;-0.45;;0.25;-2.04;1;4;0;1
SO2;uur;�g/m�;20120105 22:00;20120105 23:00;9.4;13.3;4.9;1.5;0.3;1.3;0.12;0.61;0.37;-0.9;;0.3;-2.39;1;5;0;1
SO2;uur;�g/m�;20120105 23:00;20120106 00:00;8.8;10.9;5.2;1.6;0.6;1.1;0.01;0.98;0.6;-0.58;;0.03;-1.99;1;15;0;1
SO2;uur;�g/m�;20120106 00:00;20120106 01:00;9.4;10;4.6;1.8;0.8;1.3;0.97;1.93;-0.52;0.46;;0.06;-0.17;1;12;0;1
SO2;uur;�g/m�;20120106 01:00;20120106 02:00;7.8;6.7;3.8;1.7;0.6;1.2;1.08;2.03;-0.68;0.82;;0.06;-0.49;1;13;0;1
SO2;uur;�g/m�;20120106 02:00;20120106 03:00;8.4;11.4;3.9;1.4;0.3;1.4;0.95;1.91;-0.52;0.81;;0.4;-0.71;1;16;0;1
SO2;uur;�g/m�;20120106 03:00;20120106 04:00;7.2;10.6;3.6;1.3;0.3;1;0.85;2.07;-0.87;0.62;;0.19;-0.22;1;20;0;1
SO2;uur;�g/m�;20120106 04:00;20120106 05:00;7.2;12;3.3;1.1;0;0.9;1.04;2;-0.4;0.8;;0.35;-0.52;1;23;0;1
SO2;uur;�g/m�;20120106 05:00;20120106 06:00;6.5;10;4.8;1.4;0.2;0.8;0.95;1.64;-0.75;0.8;;0.48;-0.33;2;16;0;1
SO2;uur;�g/m�;20120106 06:00;20120106 07:00;6.7;10.4;3.4;0.7;0;0.9;1.48;1.69;-0.29;0.73;;0.07;-0.15;3;15;0;1
SO2;uur;�g/m�;20120106 07:00;20120106 08:00;6.4;10.8;3.2;0.8;0;0.9;1.42;1.82;-0.59;0.78;;0.1;-0.46;1;22;0;1
SO2;uur;�g/m�;20120106 08:00;20120106 09:00;5.3;10.4;4.3;1.1;0;0.5;1.14;2.09;-0.68;0.77;;0.37;-0.29;1;33;0;1
SO2;uur;�g/m�;20120106 09:00;20120106 10:00;4.7;8.9;2.5;1.1;0;1;1.48;2;-0.63;0.63;;0.4;0.29;1;38;0;1
SO2;uur;�g/m�;20120106 10:00;20120106 11:00;5.4;8.3;2.2;1.2;0;0.8;1.48;1.95;-0.82;0.56;;0.29;0.25;2;29;0;1
SO2;uur;�g/m�;20120106 11:00;20120106 12:00;4.4;9;2.6;1.1;0.2;0.9;1.68;2.37;-0.47;0.92;;0.24;-0.25;;27;0;1
SO2;uur;�g/m�;20120106 12:00;20120106 13:00;5.6;9.8;2.6;1.3;0.1;0.6;1.79;2.16;-0.78;0.89;;0.14;0.02;0;23;0;1
SO2;uur;�g/m�;20120106 13:00;20120106 14:00;4.6;8.7;2.8;0.7;0;0.5;1.98;2.17;-0.65;1.02;;0.43;0.1;0;12;0;1
SO2;uur;�g/m�;20120106 14:00;20120106 15:00;10.5;5.6;2.8;0.9;0.9;2.1;2.1;2.27;-0.55;1.04;;0.24;-0.06;0;4;0;1
SO2;uur;�g/m�;20120106 15:00;20120106 16:00;18.4;3.3;3.4;0;2.8;2;2.16;2.49;-0.26;0.98;;0.02;0.28;0;1;0;1
SO2;uur;�g/m�;20120106 16:00;20120106 17:00;12.7;13.2;7.7;2.9;5;22.1;1.62;2.14;0.19;0.94;;-0.09;0.18;1;0;0;1
SO2;uur;�g/m�;20120106 17:00;20120106 18:00;14.7;22.8;8.5;5.2;5.4;8.6;1.28;2.01;0.14;1.34;;0.16;0.36;1;0;0;1
SO2;uur;�g/m�;20120106 18:00;20120106 19:00;17.3;7.3;6.6;3.6;4;6.1;1.57;1.9;0.5;1.05;;0.31;-0.16;0;1;0;1
SO2;uur;�g/m�;20120106 19:00;20120106 20:00;10;5.3;6.7;3.9;7.2;11.7;1.6;1.82;0.15;1.11;;0.3;0.31;0;0;0;1
SO2;uur;�g/m�;20120106 20:00;20120106 21:00;9.5;4.4;7.5;6.2;5.3;10.7;2.23;2.1;1.23;1.56;;0.13;-0.06;0;1;0;1
SO2;uur;�g/m�;20120106 21:00;20120106 22:00;9.4;4.9;4.6;7;7.5;15.6;2.01;2.34;2.06;1.8;;0.06;0.1;1;0;0;2
SO2;uur;�g/m�;20120106 22:00;20120106 23:00;14.9;6.5;5.9;11.4;7.2;15.5;2.85;2.02;3.14;1.51;;0.17;-0.17;0;0;0;2
SO2;uur;�g/m�;20120106 23:00;20120107 00:00;16.6;6.3;6.3;16.7;6.9;6.3;2.5;2.15;3.39;2.25;;0.39;0.93;1;1;0;2
SO2;uur;�g/m�;20120107 00:00;20120107 01:00;13.1;6.8;5.7;16.9;7.4;16;1.73;1.17;4.66;1.5;;-0.32;0.5;2;1;0;2
SO2;uur;�g/m�;20120107 01:00;20120107 02:00;14.3;5.8;5.4;15.6;5.6;9.4;1.98;0.9;3.14;0.4;;-0.53;0.12;1;0;0;2
SO2;uur;�g/m�;20120107 02:00;20120107 03:00;9.1;5.6;5;12.2;4.7;9.4;1.37;0.79;1.67;0.87;;-0.5;0.32;1;0;0;1
SO2;uur;�g/m�;20120107 03:00;20120107 04:00;;;;;;;0.75;0.45;1.68;0.69;;-1.53;0.38;0;0;0;1
SO2;uur;�g/m�;20120107 04:00;20120107 05:00;6.5;5.7;14;6;3.7;16.5;0.56;0.59;1.11;0.32;;-0.71;0.54;0;0;0;1
SO2;uur;�g/m�;20120107 05:00;20120107 06:00;7.2;5.8;16.8;5.1;3.8;12.3;0.4;0.74;0.51;0.29;;-1.01;0.56;0;0;0;1
SO2;uur;�g/m�;20120107 06:00;20120107 07:00;10;5.5;9;5.4;5;8.7;0.39;0.72;0.29;0.35;;-0.8;0.63;0;0;0;1
SO2;uur;�g/m�;20120107 07:00;20120107 08:00;10.6;8.3;8.4;7.8;17.8;14.4;0.39;0.74;1.2;0.19;;-0.79;0.82;0;;;1
SO2;uur;�g/m�;20120107 08:00;20120107 09:00;10.8;22.7;12.5;7.3;10.5;10.1;0.22;0.65;2.43;0.4;;-0.59;0.57;2;1;1;2
SO2;uur;�g/m�;20120107 09:00;20120107 10:00;19.5;18.9;10.2;5.6;5.4;6.2;0.19;1.36;2.35;0.09;;-0.84;0.55;3;2;1;3
SO2;uur;�g/m�;20120107 10:00;20120107 11:00;20;23.5;10.5;4.9;8.8;8.7;0.4;1.29;3.59;0.31;;-0.69;0.71;4;1;1;4
SO2;uur;�g/m�;20120107 11:00;20120107 12:00;21.3;19.9;11.5;5.2;7.7;9.9;0.79;1.04;3.04;0.25;;-0.44;0.5;2;2;1;4
SO2;uur;�g/m�;20120107 12:00;20120107 13:00;22.5;18.1;9;4.9;8.1;6.1;0.93;1.31;2.79;0.14;;-0.77;0.34;1;1;1;
SO2;uur;�g/m�;20120107 13:00;20120107 14:00;17.9;17.3;9.6;4.8;5.6;6.1;0.82;1.04;2.88;0.07;;-1.11;0.37;3;2;2;4
SO2;uur;�g/m�;20120107 14:00;20120107 15:00;15.8;18.8;8.5;4.6;5.2;3.7;0.35;1.52;2.6;0.33;;-0.8;0.61;3;1;1;3
SO2;uur;�g/m�;20120107 15:00;20120107 16:00;17.7;14;6.9;4.8;5.7;3.2;0.45;1.05;2.04;0.31;;-0.96;0.2;1;1;1;2
SO2;uur;�g/m�;20120107 16:00;20120107 17:00;15;14.5;9.1;4.2;8.4;3.3;0.36;1.03;1.76;0.68;;-1.48;0.72;1;1;1;2
SO2;uur;�g/m�;20120107 17:00;20120107 18:00;11.7;11.2;7.2;4.2;8.3;3.6;0.28;1.2;1.47;0.12;;-1.06;0.33;2;1;1;2
SO2;uur;�g/m�;20120107 18:00;20120107 19:00;16.1;18.5;9;4.8;8.7;4.4;0.52;0.77;2.22;0;;-1.3;0.46;2;1;1;2
SO2;uur;�g/m�;20120107 19:00;20120107 20:00;15.1;17.7;10;4.3;5.7;4.7;1.38;1.04;2.2;-0.05;;-0.87;0.2;3;1;1;2
SO2;uur;�g/m�;20120107 20:00;20120107 21:00;14.8;29.9;12.7;5.9;8;17.1;1.4;1.05;2.83;0.01;;-0.84;-0.04;3;1;1;3
SO2;uur;�g/m�;20120107 21:00;20120107 22:00;12.3;30;12.6;5.8;7.7;24.6;1.01;0.83;2.16;0.31;;-0.96;-0.19;1;2;1;2
SO2;uur;�g/m�;20120107 22:00;20120107 23:00;;;;;;;1.23;0.99;2.64;0.29;;-0.72;-0.02;1;1;1;2
SO2;uur;�g/m�;20120107 23:00;20120108 00:00;10.9;33;12.2;5.4;6.9;13.1;1.18;1.19;2.82;0.53;;-0.48;-0.29;1;1;1;2
SO2;uur;�g/m�;20120108 00:00;20120108 01:00;11.1;27.5;13.9;5.5;7.9;11.1;1.44;1.36;2.28;2.16;;0.76;1.56;1;1;1;2
SO2;uur;�g/m�;20120108 01:00;20120108 02:00;11.4;29.6;11.5;6.2;6.5;6;1.12;0.94;2.3;1.25;;0.66;1.34;1;1;1;2
SO2;uur;�g/m�;20120108 02:00;20120108 03:00;11.6;27.6;13.6;4.5;8;4.2;0.91;1.04;1.97;1.71;;0.68;1.65;2;1;1;2
SO2;uur;�g/m�;20120108 03:00;20120108 04:00;;;;;;;1.15;1.04;2.27;1.64;;0.42;1.79;2;0;1;2
SO2;uur;�g/m�;20120108 04:00;20120108 05:00;14.4;20.7;8.2;4.2;5.7;2.4;1.03;0.79;1.31;1.65;;0.49;1.32;1;1;1;2
SO2;uur;�g/m�;20120108 05:00;20120108 06:00;9.9;11;6.2;4.2;4.1;3.6;0.78;0.84;1.39;1.41;;0.8;1.75;1;0;1;1
SO2;uur;�g/m�;20120108 06:00;20120108 07:00;10.3;9.9;6.1;4.3;3.6;3.3;0.46;0.99;1.03;1.14;;0.57;1.67;0;0;1;1
SO2;uur;�g/m�;20120108 07:00;20120108 08:00;12.2;12.1;5.3;4.1;2.8;3.7;0.6;1.18;0.9;0.82;;0.49;1.41;1;1;1;1
SO2;uur;�g/m�;20120108 08:00;20120108 09:00;13.1;12.5;6.2;3.7;2.5;2.5;0.51;0.86;0.66;1.21;;0.43;1.14;1;2;1;1
SO2;uur;�g/m�;20120108 09:00;20120108 10:00;14.2;12;5.7;3.2;2.4;2.5;0.26;0.99;0.71;1.19;;0.58;1.27;1;1;1;1
SO2;uur;�g/m�;20120108 10:00;20120108 11:00;10.2;8.6;6;3.4;2.9;3.1;0.61;1.31;0.93;1.54;;0.68;1.43;1;1;1;1
SO2;uur;�g/m�;20120108 11:00;20120108 12:00;11.3;8.3;5.3;4;3.2;2.6;0.82;1.46;0.85;1.05;;0.58;1.25;2;1;1;1
SO2;uur;�g/m�;20120108 12:00;20120108 13:00;6.5;8.4;5.4;3.5;2.5;2.7;1.02;2.06;0.52;1.45;;0.42;1.7;;1;1;1
SO2;uur;�g/m�;20120108 13:00;20120108 14:00;9.2;9.8;4.1;3.4;2.2;2.3;0.85;1.94;1.07;1.8;;0.29;1.94;2;0;1;1
SO2;uur;�g/m�;20120108 14:00;20120108 15:00;7.2;9.2;4.5;3.8;2.6;2.9;0.66;2.01;0.98;1.23;;0.25;1.93;2;2;0;1
SO2;uur;�g/m�;20120108 15:00;20120108 16:00;8.2;8.5;4.7;3.7;3.6;3.2;0.45;1.81;0.93;1.27;;0.38;1.66;1;3;1;1
SO2;uur;�g/m�;20120108 16:00;20120108 17:00;11.5;9.1;4.8;3.6;2.9;3.6;0.35;1.3;1.06;1.23;;0.64;1.92;1;3;1;1
SO2;uur;�g/m�;20120108 17:00;20120108 18:00;12.2;11.1;4.2;3.7;3.5;3.9;0.87;1.18;0.86;1.39;;0.2;1.54;1;1;1;1
SO2;uur;�g/m�;20120108 18:00;20120108 19:00;16.1;13.3;4.8;3.2;4.6;3.5;0.53;1.09;0.57;1.37;;0.35;1.95;1;1;1;1
SO2;uur;�g/m�;20120108 19:00;20120108 20:00;16.8;12.3;6.8;3.5;5;6;0.59;0.71;0.78;1.32;;0.53;1.81;1;1;1;1
SO2;uur;�g/m�;20120108 20:00;20120108 21:00;20.4;25.4;12.2;3.6;6.3;7;0.58;0.64;1.38;1.16;;0.43;1.77;3;1;1;1
SO2;uur;�g/m�;20120108 21:00;20120108 22:00;19.9;9.8;16.7;6;13.2;14.8;0.88;0.92;2.51;0.96;;0.37;1.62;3;1;1;1
SO2;uur;�g/m�;20120108 22:00;20120108 23:00;11.8;6.8;12.6;6.8;5.9;8;1.47;1.3;2.53;1.32;;0.55;1.81;1;1;1;1